SCP
-0 -0 0 0 0 0 0 0 0 0 -0 -0 -0 -0 -0 -0 -0 -0 -0 -0 -0 -0 -0 -0 -0 -0 -0 -0 -0 -0 -0 -0 -0 -0 -0 -0 -0 -0 -0 -0 -0 -0 -0
-0 0 0 0 0 0 0 0 0 0 -0 -0 -0 -0 -0 -0 -0 -0 -0 -0 -0 -0 0 0 0 0 0 -0 -0 -0 -0 -0 -0 0 0 -0 -0 -0 -0 -0 -0 -0 -0
-0 0 0 0 0 0 -0 0 0 0 0 -0 -0 -0 -0 -0 -0 0 0 0 0 0 0 0 0 0 0 -0 0 -0 0 0 0 0 0 -0 -0 -0 -0 -0 -0 -0 -0
0 0 0 0 -0 -0 -0 -0 -0 0 0 0 -0 0 -0 -0 0 0 0 0 0 0 0 0 0 0 0 0 0 0 0 0 0 0 0 0 -0 -0 -0 -0 -0 -0 -0
0 0 -0 0 -0 -0 -0 -0 -0 -0 -0 -0 -0 -0 -0 0 0 0 0 0 0 0 0 0 0 0 0 0 0 0 0 0 0 0 0 0 0 0 -0 -0 -0 -0 -0
0 0 -0 -0 -0 -0 -0 -0 -0 -0 -0 -0 -0 0 0 -0 -0 0 0 0 0 0 0 0 0 0 0 0 0 0 0 0 0 0 0 0 0 0 -0 -0 -0 -0 -0
0 0 -0 -0 -0 -0 -0 -0 -0 -0 0 0 0 0 0 0 0 0 0 0 0 0 0 0 0 0 0 0 0 0 0 0 0 0 0 0 0 0 0 0 0 -0 -0
-0 0 0 -0 -0 -0 -0 -0 -0 -0 0 0 0 0 0 0 0 0 0 0 0 0 0 0 0 0 0 0 0 0 0 0 0 0 0 0 0 0 0 0 0 0 0
0 0 -0 -0 -0 -0 -0 -0 -0 -0 -0 -0 0 0 0 0 0 0 0 0 0 0 0 0 0 0 0 0 0 0 0 0 0 0 0 0 0 0 0 0 0 0 0
0 0 -0 -0 -0 -0 -0 -0 -0 -0 -0 -0 -0 0 0 0 0 0 0 0 0 0 0 0 0 0 0 0 -0 0 0 0 0 0 0 0 0 0 0 0 0 0 0
0 0 0 0 -0 -0 -0 -0 -0 0 0 0 0 0 0 0 0 0 0 0 0 0 0 0 0 0 0 0 0 0 0 0 0 0 0 0 0 0 0 0 0 0 0
0 0 0 0 0 0 0 -0 0 0 0 0 0 0 0 0 0 0 0 0 0 0 0 0 0 0 0 0 0 0 0 0 0 0 0 0 0 0 0 0 0 0 0
0 0 0 0 0 0 0 0 0 0 0 0 0 0 0 0 0 0 0 0 0 0 0 0 0 0 0 0 0 0 0 0 0 0 0 0 0 0 0 0 0 0 0
0 0 0 0 0 0 0 0 0 0 0 0 0 0 0 0 0 0 0 0 0 0 0 0 0 0 0 0 0 0 0 0 0 0 0 0 0 0 0 0 0 0 0
0 0 0 0 0 0 0 0 0 0 0 0 0 0 0 0 0 0 0 0 0 0 0 0 0 0 0 0 0 0 0 0 0 0 0 0 0 0 0 0 0 0 0
1 1 0 0 0 0 0 0 0 0 0 0 0 0 0 0 0 0 0 0 0 0 0 0 0 0 0 0 0 0 0 0 0 0 0 0 0 0 0 0 0 0 0
0 0 0 0 0 0 0 -0 0 0 0 0 0 0 0 0 0 0 0 0 0 0 0 0 0 0 0 0 0 0 0 0 0 0 0 0 0 0 0 0 0 0 0
0 0 1 1 0 0 0 0 0 0 0 0 0 0 0 0 0 0 0 0 0 0 0 0 0 0 0 0 0 0 0 0 0 0 0 0 0 0 0 0 0 0 0
0 0 0 1 0 1 0 0 0 0 0 0 0 0 0 0 0 0 0 0 0 0 0 0 0 0 0 0 0 0 0 0 0 0 0 0 0 0 0 0 0 0 0
0 0 0 1 1 1 0 0 0 0 0 0 0 0 0 0 0 0 0 0 0 0 0 0 0 0 0 0 0 0 0 0 0 0 0 0 0 0 0 0 0 0 0
0 0 0 0 0 0 0 0 0 0 0 0 0 0 0 0 0 0 0 0 0 0 0 0 0 0 0 0 0 0 0 0 0 0 0 0 0 0 0 0 0 0 0
0 0 0 0 0 0 0 0 0 0 0 0 0 0 0 0 0 0 0 0 0 0 0 0 0 0 0 0 0 0 0 0 0 0 0 0 0 0 0 0 0 0 0
0 0 0 0 0 0 0 0 0 0 0 0 0 0 0 0 0 0 0 0 0 0 0 0 0 0 0 0 0 0 0 0 0 0 0 0 0 0 0 0 0 0 0
0 0 0 0 0 0 0 0 0 0 0 0 0 0 0 0 0 0 0 0 0 0 0 0 0 0 0 0 0 0 0 0 0 0 0 0 0 0 0 0 0 0 0
0 0 0 0 0 0 0 0 0 0 0 0 0 0 0 0 0 0 0 0 0 0 0 0 0 0 0 0 0 0 0 0 0 0 0 0 0 0 0 0 0 0 0
0 0 0 0 0 0 0 0 0 0 0 0 0 0 0 0 0 0 0 0 0 0 0 0 0 0 0 0 0 0 0 0 0 0 0 0 0 0 0 0 0 0 0
Wind_Speed_500mb
36 49 47 47 47 46 43 39 36 35 30 26 28 28 24 21 18 19 21 21 20 19 19 19 18 17 17 17 15 12 12 12 12 12 15 17 17 18 16 15 15 18 17
39 51 49 48 46 47 45 41 36 34 32 29 28 26 23 20 19 19 19 18 16 16 17 17 18 19 18 15 13 13 13 13 12 14 17 18 16 10 15 15 10 16 24
44 50 50 50 46 46 45 43 38 34 30 26 23 23 21 19 18 18 19 16 15 14 15 14 15 16 15 13 12 11 9 7 9 12 17 19 19 20 15 15 13 8 10
41 45 49 48 46 45 45 42 38 33 29 25 21 18 14 14 15 16 17 15 14 14 14 13 13 14 13 11 11 9 5 1 8 10 15 18 19 18 20 18 14 12 7
44 42 48 48 46 44 43 41 37 32 28 23 19 15 11 8 8 10 14 15 14 13 13 12 12 12 13 10 9 11 8 2 5 6 5 10 14 16 16 13 6 7 10
37 42 46 46 45 42 42 39 35 31 27 22 19 14 11 8 6 6 8 11 12 12 12 12 11 11 13 13 10 11 10 8 2 3 3 5 11 16 13 10 12 5 3
27 37 44 45 42 40 38 37 34 31 26 23 20 15 11 7 6 5 6 8 9 9 9 8 9 10 12 15 13 15 15 14 12 9 5 5 8 11 16 13 11 13 8
16 34 42 44 41 37 36 35 33 30 27 23 20 16 11 9 8 7 8 8 9 9 9 9 10 11 13 15 18 21 20 21 16 15 11 10 9 12 18 14 13 14 15
14 26 41 45 43 39 36 35 33 29 26 23 20 17 13 11 11 11 12 12 12 12 12 13 12 13 14 15 17 23 25 27 24 19 18 15 14 12 11 20 20 19 18
13 15 36 45 43 40 37 34 30 29 26 24 21 19 17 15 15 15 16 17 17 17 18 17 17 18 18 18 19 23 31 31 32 29 25 22 20 18 21 22 24 25 23
19 18 29 40 42 39 36 35 34 32 28 25 23 22 21 18 18 19 20 21 23 23 22 22 23 22 23 22 22 24 36 34 36 37 32 27 25 24 25 25 28 28 26
20 17 17 28 37 39 39 38 36 33 30 27 25 24 22 22 22 23 25 27 28 28 29 30 30 29 28 26 24 27 34 38 40 41 40 34 30 30 30 28 31 32 31
20 21 15 14 21 28 35 37 37 33 29 27 25 23 27 28 27 28 30 31 33 33 35 36 38 38 35 32 28 30 34 39 43 45 46 42 37 37 33 30 33 36 36
32 24 22 21 17 14 24 34 35 31 27 25 14 16 24 27 27 29 34 35 35 35 34 33 34 31 37 39 37 37 37 41 44 49 50 51 44 41 41 38 35 38 39
36 28 24 21 17 12 5 21 30 25 18 13 11 11 9 10 12 15 17 22 24 29 32 34 37 39 39 40 40 39 38 40 47 51 54 55 52 47 47 46 42 42 42
36 33 27 23 18 16 15 3 14 19 17 20 20 21 23 24 24 28 31 29 30 31 34 36 38 43 47 46 49 47 46 41 42 51 52 56 59 55 53 51 50 49 47
36 38 35 30 24 15 14 10 12 16 15 18 22 21 22 22 25 33 38 38 41 42 43 47 48 49 53 51 54 54 53 51 49 50 55 57 56 61 61 58 55 54 53
28 29 30 33 30 21 14 11 18 17 23 21 22 26 30 30 30 32 35 42 46 50 52 57 61 62 60 59 60 59 58 57 57 57 58 59 61 65 63 65 64 61 60
26 27 33 36 31 27 22 14 14 16 20 20 19 16 17 20 25 30 32 42 48 53 55 60 60 62 65 66 70 71 70 71 71 67 69 65 65 64 68 67 68 68 67
26 23 34 41 39 36 24 22 21 14 10 6 3 5 12 15 17 20 22 26 31 35 40 41 48 51 54 58 65 74 78 80 77 80 75 79 77 72 71 71 72 76 73
32 31 37 46 39 32 30 28 23 18 13 10 2 8 14 19 23 25 25 27 28 31 35 40 47 47 49 49 57 64 76 74 73 70 75 79 92 87 86 80 80 81 83
46 45 43 44 39 35 29 26 20 17 10 5 9 15 22 25 27 32 36 39 42 45 46 45 45 53 54 43 49 64 54 63 60 60 62 71 93 100 98 98 90 91 90
53 52 49 44 40 34 28 20 15 10 7 13 21 27 30 32 34 37 40 43 45 42 42 45 45 44 53 53 51 47 41 42 63 70 64 62 65 79 96 108 101 104 99
53 50 47 43 37 31 25 14 4 10 19 25 32 37 40 42 43 46 48 47 42 39 40 38 41 49 53 51 50 46 49 58 64 72 68 60 72 77 71 79 83 103 105
48 46 44 38 31 23 9 7 16 18 21 26 31 35 41 46 46 44 45 45 42 41 41 48 53 56 56 58 47 43 46 51 52 55 73 63 61 65 74 79 81 78 92
47 43 37 32 24 11 4 15 20 20 25 29 32 37 39 35 32 37 42 46 50 47 45 48 50 51 52 53 59 56 51 47 53 53 59 64 63 74 62 69 71 76 82
Wind_Direction_500mb
176 172 168 169 168 168 165 159 156 152 151 143 136 131 126 120 117 123 129 126 121 118 118 113 109 108 105 101 94 92 92 88 85 81 67 61 60 69 63 73 85 87 88
176 175 170 170 171 171 169 163 159 155 151 144 136 130 125 122 122 131 137 138 130 123 118 114 115 114 113 106 101 108 111 107 92 79 87 71 43 49 66 72 93 94 85
176 175 172 173 173 173 171 168 163 159 156 154 147 136 132 129 129 136 144 145 138 128 121 115 117 118 122 119 119 115 112 105 98 110 84 61 53 38 51 61 107 108 121
178 176 176 175 177 176 173 172 169 166 166 163 157 149 139 134 136 142 148 149 146 140 135 130 128 127 136 140 142 144 153 77 41 68 69 60 46 37 27 62 54 63 117
177 182 180 178 181 180 177 177 176 174 174 174 169 162 157 151 143 150 155 155 154 151 147 142 139 142 150 162 165 182 194 255 40 54 55 49 18 11 358 24 81 75 74
174 183 182 180 184 184 185 183 183 184 183 182 187 182 180 178 176 173 172 172 169 168 165 159 158 161 163 177 184 211 222 258 229 301 313 22 36 18 4 344 350 10 147
170 181 184 183 185 188 187 187 189 190 190 191 194 197 201 215 215 211 210 202 199 193 191 186 183 185 182 184 200 221 225 255 279 285 295 324 348 7 351 337 330 340 326
179 184 186 186 188 192 193 193 193 192 195 197 201 205 215 231 257 263 251 242 235 234 228 227 219 214 206 198 201 229 228 242 261 282 283 283 296 334 337 339 324 323 322
169 188 186 190 190 197 200 200 200 199 201 204 208 213 226 243 262 271 268 263 259 254 252 252 247 238 229 223 217 230 236 242 248 254 269 273 273 299 317 332 331 314 304
167 170 189 191 196 201 204 206 208 209 212 215 219 225 234 244 259 268 267 266 266 265 265 266 260 258 253 242 233 231 244 242 249 251 260 270 268 277 295 306 315 311 299
183 174 187 196 204 207 212 215 216 219 221 225 230 237 247 256 266 274 276 270 266 266 268 272 266 265 262 260 260 249 249 248 247 254 256 265 265 269 287 296 304 309 300
190 186 184 205 213 215 218 221 224 227 231 237 244 253 264 268 272 275 273 271 269 268 268 267 267 266 269 269 271 268 261 258 252 251 254 257 260 266 277 285 297 301 302
196 191 182 190 208 223 230 230 230 229 234 243 253 264 271 272 277 281 280 277 275 278 280 282 282 274 273 273 271 269 266 264 260 255 254 256 261 264 269 275 289 295 297
212 194 177 167 166 180 227 237 237 235 241 251 254 283 274 272 285 287 282 280 278 279 283 284 296 304 293 286 278 271 269 269 263 260 259 259 264 266 271 275 280 288 294
211 194 181 175 154 146 181 235 232 229 211 209 252 287 282 277 290 304 319 308 304 296 291 290 295 301 301 300 294 287 279 276 268 265 260 260 262 267 270 277 278 283 289
193 190 191 191 158 130 92 49 212 215 231 247 258 268 272 278 290 297 295 291 286 290 294 298 301 296 294 293 293 290 289 289 283 266 267 263 264 267 269 274 277 281 287
195 198 204 198 170 148 129 119 190 221 250 251 256 263 273 283 285 282 287 296 300 294 291 291 292 295 290 287 286 289 284 284 286 288 272 268 268 268 271 273 273 275 281
205 199 199 199 182 166 169 193 211 249 249 255 262 270 277 280 276 268 275 279 289 287 288 288 288 287 286 286 285 286 283 278 273 275 279 277 271 270 271 273 273 273 276
214 196 195 195 178 182 185 191 210 236 255 262 281 302 315 302 295 291 288 287 282 283 288 292 292 293 290 288 289 288 287 280 278 273 263 267 275 273 271 271 273 276 278
203 194 184 169 181 175 188 189 194 186 162 199 269 322 299 323 323 319 313 303 298 296 297 299 300 295 300 292 297 294 288 283 282 278 272 262 261 264 266 270 269 270 272
170 173 168 165 176 184 188 168 166 161 148 137 132 315 309 300 292 291 291 296 301 308 310 308 304 305 310 314 310 306 299 297 287 286 280 273 265 261 262 262 265 264 267
157 164 164 165 159 159 162 159 159 159 171 233 296 312 311 307 304 302 300 299 302 307 313 317 321 322 318 317 306 304 310 298 299 292 288 282 267 263 258 262 259 261 263
154 158 160 158 161 159 157 157 160 177 236 276 292 303 311 313 314 310 303 302 305 316 323 322 324 322 320 318 318 307 304 294 304 294 291 290 286 274 263 258 255 260 261
158 157 159 161 159 153 146 146 189 295 303 307 310 312 312 311 309 311 314 317 318 308 307 313 316 316 314 318 318 314 303 298 298 300 291 289 286 281 272 270 268 263 262
160 162 164 160 153 145 139 358 344 331 320 311 307 306 311 313 316 318 316 320 321 320 315 312 313 315 316 312 310 311 318 316 311 303 297 296 290 278 273 269 264 262 260
168 171 168 166 162 166 298 331 335 335 333 329 323 324 324 325 327 331 330 330 329 322 324 324 324 322 318 314 306 297 302 321 323 317 305 300 295 283 288 289 278 266 268
Wind_Speed_850mb
36 49 47 47 47 46 43 39 36 35 30 26 28 28 24 21 18 19 21 21 20 19 19 19 18 17 17 17 15 12 12 12 12 12 15 17 17 18 16 15 15 18 17
39 51 49 48 46 47 45 41 36 34 32 29 28 26 23 20 19 19 19 18 16 16 17 17 18 19 18 15 13 13 13 13 12 14 17 18 16 10 15 15 10 16 24
44 50 50 50 46 46 45 43 38 34 30 26 23 23 21 19 18 18 19 16 15 14 15 14 15 16 15 13 12 11 9 7 9 12 17 19 19 20 15 15 13 8 10
41 45 49 48 46 45 45 42 38 33 29 25 21 18 14 14 15 16 17 15 14 14 14 13 13 14 13 11 11 9 5 1 8 10 15 18 19 18 20 18 14 12 7
44 42 48 48 46 44 43 41 37 32 28 23 19 15 11 8 8 10 14 15 14 13 13 12 12 12 13 10 9 11 8 2 5 6 5 10 14 16 16 13 6 7 10
37 42 46 46 45 42 42 39 35 31 27 22 19 14 11 8 6 6 8 11 12 12 12 12 11 11 13 13 10 11 10 8 2 3 3 5 11 16 13 10 12 5 3
27 37 44 45 42 40 38 37 34 31 26 23 20 15 11 7 6 5 6 8 9 9 9 8 9 10 12 15 13 15 15 14 12 9 5 5 8 11 16 13 11 13 8
16 34 42 44 41 37 36 35 33 30 27 23 20 16 11 9 8 7 8 8 9 9 9 9 10 11 13 15 18 21 20 21 16 15 11 10 9 12 18 14 13 14 15
14 26 41 45 43 39 36 35 33 29 26 23 20 17 13 11 11 11 12 12 12 12 12 13 12 13 14 15 17 23 25 27 24 19 18 15 14 12 11 20 20 19 18
13 15 36 45 43 40 37 34 30 29 26 24 21 19 17 15 15 15 16 17 17 17 18 17 17 18 18 18 19 23 31 31 32 29 25 22 20 18 21 22 24 25 23
19 18 29 40 42 39 36 35 34 32 28 25 23 22 21 18 18 19 20 21 23 23 22 22 23 22 23 22 22 24 36 34 36 37 32 27 25 24 25 25 28 28 26
20 17 17 28 37 39 39 38 36 33 30 27 25 24 22 22 22 23 25 27 28 28 29 30 30 29 28 26 24 27 34 38 40 41 40 34 30 30 30 28 31 32 31
20 21 15 14 21 28 35 37 37 33 29 27 25 23 27 28 27 28 30 31 33 33 35 36 38 38 35 32 28 30 34 39 43 45 46 42 37 37 33 30 33 36 36
32 24 22 21 17 14 24 34 35 31 27 25 14 16 24 27 27 29 34 35 35 35 34 33 34 31 37 39 37 37 37 41 44 49 50 51 44 41 41 38 35 38 39
36 28 24 21 17 12 5 21 30 25 18 13 11 11 9 10 12 15 17 22 24 29 32 34 37 39 39 40 40 39 38 40 47 51 54 55 52 47 47 46 42 42 42
36 33 27 23 18 16 15 3 14 19 17 20 20 21 23 24 24 28 31 29 30 31 34 36 38 43 47 46 49 47 46 41 42 51 52 56 59 55 53 51 50 49 47
36 38 35 30 24 15 14 10 12 16 15 18 22 21 22 22 25 33 38 38 41 42 43 47 48 49 53 51 54 54 53 51 49 50 55 57 56 61 61 58 55 54 53
28 29 30 33 30 21 14 11 18 17 23 21 22 26 30 30 30 32 35 42 46 50 52 57 61 62 60 59 60 59 58 57 57 57 58 59 61 65 63 65 64 61 60
26 27 33 36 31 27 22 14 14 16 20 20 19 16 17 20 25 30 32 42 48 53 55 60 60 62 65 66 70 71 70 71 71 67 69 65 65 64 68 67 68 68 67
26 23 34 41 39 36 24 22 21 14 10 6 3 5 12 15 17 20 22 26 31 35 40 41 48 51 54 58 65 74 78 80 77 80 75 79 77 72 71 71 72 76 73
32 31 37 46 39 32 30 28 23 18 13 10 2 8 14 19 23 25 25 27 28 31 35 40 47 47 49 49 57 64 76 74 73 70 75 79 92 87 86 80 80 81 83
46 45 43 44 39 35 29 26 20 17 10 5 9 15 22 25 27 32 36 39 42 45 46 45 45 53 54 43 49 64 54 63 60 60 62 71 93 100 98 98 90 91 90
53 52 49 44 40 34 28 20 15 10 7 13 21 27 30 32 34 37 40 43 45 42 42 45 45 44 53 53 51 47 41 42 63 70 64 62 65 79 96 108 101 104 99
53 50 47 43 37 31 25 14 4 10 19 25 32 37 40 42 43 46 48 47 42 39 40 38 41 49 53 51 50 46 49 58 64 72 68 60 72 77 71 79 83 103 105
48 46 44 38 31 23 9 7 16 18 21 26 31 35 41 46 46 44 45 45 42 41 41 48 53 56 56 58 47 43 46 51 52 55 73 63 61 65 74 79 81 78 92
47 43 37 32 24 11 4 15 20 20 25 29 32 37 39 35 32 37 42 46 50 47 45 48 50 51 52 53 59 56 51 47 53 53 59 64 63 74 62 69 71 76 82
Wind_Direction_850mb
176 172 168 169 168 168 165 159 156 152 151 143 136 131 126 120 117 123 129 126 121 118 118 113 109 108 105 101 94 92 92 88 85 81 67 61 60 69 63 73 85 87 88
176 175 170 170 171 171 169 163 159 155 151 144 136 130 125 122 122 131 137 138 130 123 118 114 115 114 113 106 101 108 111 107 92 79 87 71 43 49 66 72 93 94 85
176 175 172 173 173 173 171 168 163 159 156 154 147 136 132 129 129 136 144 145 138 128 121 115 117 118 122 119 119 115 112 105 98 110 84 61 53 38 51 61 107 108 121
178 176 176 175 177 176 173 172 169 166 166 163 157 149 139 134 136 142 148 149 146 140 135 130 128 127 136 140 142 144 153 77 41 68 69 60 46 37 27 62 54 63 117
177 182 180 178 181 180 177 177 176 174 174 174 169 162 157 151 143 150 155 155 154 151 147 142 139 142 150 162 165 182 194 255 40 54 55 49 18 11 358 24 81 75 74
174 183 182 180 184 184 185 183 183 184 183 182 187 182 180 178 176 173 172 172 169 168 165 159 158 161 163 177 184 211 222 258 229 301 313 22 36 18 4 344 350 10 147
170 181 184 183 185 188 187 187 189 190 190 191 194 197 201 215 215 211 210 202 199 193 191 186 183 185 182 184 200 221 225 255 279 285 295 324 348 7 351 337 330 340 326
179 184 186 186 188 192 193 193 193 192 195 197 201 205 215 231 257 263 251 242 235 234 228 227 219 214 206 198 201 229 228 242 261 282 283 283 296 334 337 339 324 323 322
169 188 186 190 190 197 200 200 200 199 201 204 208 213 226 243 262 271 268 263 259 254 252 252 247 238 229 223 217 230 236 242 248 254 269 273 273 299 317 332 331 314 304
167 170 189 191 196 201 204 206 208 209 212 215 219 225 234 244 259 268 267 266 266 265 265 266 260 258 253 242 233 231 244 242 249 251 260 270 268 277 295 306 315 311 299
183 174 187 196 204 207 212 215 216 219 221 225 230 237 247 256 266 274 276 270 266 266 268 272 266 265 262 260 260 249 249 248 247 254 256 265 265 269 287 296 304 309 300
190 186 184 205 213 215 218 221 224 227 231 237 244 253 264 268 272 275 273 271 269 268 268 267 267 266 269 269 271 268 261 258 252 251 254 257 260 266 277 285 297 301 302
196 191 182 190 208 223 230 230 230 229 234 243 253 264 271 272 277 281 280 277 275 278 280 282 282 274 273 273 271 269 266 264 260 255 254 256 261 264 269 275 289 295 297
212 194 177 167 166 180 227 237 237 235 241 251 254 283 274 272 285 287 282 280 278 279 283 284 296 304 293 286 278 271 269 269 263 260 259 259 264 266 271 275 280 288 294
211 194 181 175 154 146 181 235 232 229 211 209 252 287 282 277 290 304 319 308 304 296 291 290 295 301 301 300 294 287 279 276 268 265 260 260 262 267 270 277 278 283 289
193 190 191 191 158 130 92 49 212 215 231 247 258 268 272 278 290 297 295 291 286 290 294 298 301 296 294 293 293 290 289 289 283 266 267 263 264 267 269 274 277 281 287
195 198 204 198 170 148 129 119 190 221 250 251 256 263 273 283 285 282 287 296 300 294 291 291 292 295 290 287 286 289 284 284 286 288 272 268 268 268 271 273 273 275 281
205 199 199 199 182 166 169 193 211 249 249 255 262 270 277 280 276 268 275 279 289 287 288 288 288 287 286 286 285 286 283 278 273 275 279 277 271 270 271 273 273 273 276
214 196 195 195 178 182 185 191 210 236 255 262 281 302 315 302 295 291 288 287 282 283 288 292 292 293 290 288 289 288 287 280 278 273 263 267 275 273 271 271 273 276 278
203 194 184 169 181 175 188 189 194 186 162 199 269 322 299 323 323 319 313 303 298 296 297 299 300 295 300 292 297 294 288 283 282 278 272 262 261 264 266 270 269 270 272
170 173 168 165 176 184 188 168 166 161 148 137 132 315 309 300 292 291 291 296 301 308 310 308 304 305 310 314 310 306 299 297 287 286 280 273 265 261 262 262 265 264 267
157 164 164 165 159 159 162 159 159 159 171 233 296 312 311 307 304 302 300 299 302 307 313 317 321 322 318 317 306 304 310 298 299 292 288 282 267 263 258 262 259 261 263
154 158 160 158 161 159 157 157 160 177 236 276 292 303 311 313 314 310 303 302 305 316 323 322 324 322 320 318 318 307 304 294 304 294 291 290 286 274 263 258 255 260 261
158 157 159 161 159 153 146 146 189 295 303 307 310 312 312 311 309 311 314 317 318 308 307 313 316 316 314 318 318 314 303 298 298 300 291 289 286 281 272 270 268 263 262
160 162 164 160 153 145 139 358 344 331 320 311 307 306 311 313 316 318 316 320 321 320 315 312 313 315 316 312 310 311 318 316 311 303 297 296 290 278 273 269 264 262 260
168 171 168 166 162 166 298 331 335 335 333 329 323 324 324 325 327 331 330 330 329 322 324 324 324 322 318 314 306 297 302 321 323 317 305 300 295 283 288 289 278 266 268